{"data":{"norad_id":47748,"intl_designator":"2021-017AC","name":"STARLINK-2162","alt_names":[],"object_type":"PAYLOAD","status":"ACTIVE","operator":null,"country":"US","launch_date":"2021-03-04","launch_site_code":"AFETR","launch_vehicle":null,"mission":null,"orbit_class":"UNKNOWN","rcs_meters":null,"size_class":null,"mass_kg":null,"dimensions":null,"purposes":["comms"],"wikipedia_slug":null,"has_3d_model":false,"image_url":null,"decayed_at":null,"tle_current":{"epoch":"2026-07-12T22:56:24.559584Z","epoch_age_seconds":6034290,"freshness":"OLD","line1":"1 47748U 21017AC  26193.95583981  .04767012  12174-4  84363-3 0  9993","line2":"2 47748  53.1391 293.8157 0012207 318.7694  41.2428 16.31693497297692","mean_motion":16.31693497,"eccentricity":0.0012207,"inclination_deg":53.1391,"raan_deg":293.8157,"arg_perigee_deg":318.7694,"mean_anomaly_deg":41.2428,"bstar":0.00084363,"rev_number":29769,"period_min":88.251868543177,"perigee_km":179.97736231722,"apogee_km":196.00791121242,"semimajor_km":6566.1296367648,"source":"CELESTRAK","updated_at":"2026-07-13T09:00:41.733664Z"}}}